Location: Angwan Shehu
(11.2514°N, 7.4613°E)
Time: 04:22:50
(UTC+00:00)

Vanguard 3 - Pass Details

Date: 02 August 2021
Orbit: 510 x 3260 km, 33.3° (Epoch: 16 September)

Event Time Altitude Azimuth Distance (km) Brightness Sun altitude
Rises 21:15:36 0° 304° (NW) 6,860 12.6 -44.9°
Reaches altitude 10° 21:20:21 10° 310° (NW) 6,033 12.1 -45.8°
Maximum altitude 21:39:18 48° 21° (NNE) 3,771 10.3 -49.2°
Enters shadow 21:42:52 45° 46° (NE) 3,777 10.2 -49.8°
